This is the latest recevied weather packets stored in our database for station/object SR5NLK-1. If no packets are shown the sender has not sent any weather packets the latest 10 day(s).
| Time | Temp. | Humidity | Pressure | Rain* | Wind** | Luminosity | Snow |
|---|---|---|---|---|---|---|---|
| 1777720806 | 27.78° C | 24% | 991.6 hPa | 0 mm | - | - | - |
| 1777720506 | 27.78° C | 25% | 1059.5 hPa | 0 mm | - | - | - |
| 1777720206 | 27.78° C | 25% | 1069 hPa | 0 mm | - | - | - |
| 1777719965 | 27.22° C | 25% | 1039.7 hPa | 0 mm | - | - | - |
| 1777719906 | 27.78° C | 25% | 1075.2 hPa | 0 mm | - | - | - |
| 1777719606 | 27.22° C | 26% | 1084.6 hPa | 0 mm | - | - | - |
| 1777719306 | 26.67° C | 26% | 1075.2 hPa | 0 mm | - | - | - |
| 1777719006 | 26.11° C | 27% | 1046.9 hPa | 0 mm | - | - | - |
| 1777718706 | 26.11° C | 27% | 1059.5 hPa | 0 mm | - | - | - |
| 1777718406 | 25.56° C | 26% | 1036.6 hPa | 0 mm | - | - | - |
| 1777718106 | 25.56° C | 26% | 1053.2 hPa | 0 mm | - | - | - |
| 1777717985 | 25.56° C | 26% | 1065.8 hPa | 0 mm | - | - | - |
| 1777717806 | 25.56° C | 26% | 1053.2 hPa | 0 mm | - | - | - |
| 1777717506 | 26.11° C | 26% | 1059.5 hPa | 0 mm | - | - | - |
| 1777717206 | 26.11° C | 27% | 1065.8 hPa | 0 mm | - | - | - |
| 1777716906 | 26.11° C | 27% | 1053.2 hPa | 0 mm | - | - | - |
| 1777716606 | 25.56° C | 27% | 1065.8 hPa | 0 mm | - | - | - |
| 1777716306 | 25.56° C | 27% | 1062.7 hPa | 0 mm | - | - | - |
| 1777716005 | 25.56° C | 27% | 1050.1 hPa | 0 mm | - | - | - |
| 1777715706 | 25.56° C | 27% | 1053.2 hPa | 0 mm | - | - | - |
| 1777715406 | 25.56° C | 28% | 1078.3 hPa | 0 mm | - | - | - |
| 1777714807 | 25° C | 28% | 1072 hPa | 0 mm | - | - | - |
| 1777714506 | 25° C | 28% | 1053.2 hPa | 0 mm | - | - | - |
| 1777714207 | 25.56° C | 27% | 1072 hPa | 0 mm | - | - | - |
| 1777714026 | 25.56° C | 28% | 1069 hPa | 0 mm | - | - | - |
* Rain latest hour (hover to see other rain measurements)
** Current wind speed in m/s (hover to see current wind gust speed)